{"data":{"norad_id":69012,"intl_designator":"2026-100AJ","name":"JACKAL-004","alt_names":[],"object_type":"PAYLOAD","status":"ACTIVE","operator":null,"country":"US","launch_date":"2026-05-03","launch_site_code":"AFWTR","launch_vehicle":null,"mission":null,"orbit_class":"UNKNOWN","rcs_meters":null,"size_class":null,"mass_kg":null,"dimensions":null,"purposes":[],"wikipedia_slug":null,"has_3d_model":false,"image_url":null,"decayed_at":null,"tle_current":{"epoch":"2026-09-20T03:24:04.791168Z","epoch_age_seconds":50270,"freshness":"FRESH","line1":"1 69012U 26100AJ  26263.14172212  .00002388  00000+0  10942-3 0  9995","line2":"2 69012  97.4524 159.7829 0012266 189.6682 170.4320 15.21390700 21243","mean_motion":15.213907,"eccentricity":0.0012266,"inclination_deg":97.4524,"raan_deg":159.7829,"arg_perigee_deg":189.6682,"mean_anomaly_deg":170.432,"bstar":0.00010942,"rev_number":2124,"period_min":94.650243359579,"perigee_km":493.20614771062,"apogee_km":510.08362863869,"semimajor_km":6879.7818881747,"source":"CELESTRAK","updated_at":"2026-09-20T09:00:24.629248Z"}}}